Location: Unspecified
(0.0000°N, 0.0000°E)
Time: 17:41:39
(UTC+01:00)

Cosmos 1263 Rocket - Visible Passes

Search period start: 30 October 2014 00:00
Search period end: 09 November 2014 00:00
Orbit: 315 x 554 km, 82.9° (Epoch: 29 October)

Date Brightness Start Highest point End Pass type
(mag) Time Alt. Az. Time Alt. Az. Time Alt. Az.
03 Nov 4.3 20:12:32 10° S 20:12:36 11° S 20:12:36 11° S visible
04 Nov 3.7 19:32:53 10° SE 19:33:10 11° SE 19:33:10 11° SE visible
05 Nov 4.0 20:25:12 10° SW 20:27:06 21° W 20:27:06 21° W visible
06 Nov 1.3 19:43:42 10° S 19:46:22 60° E 19:47:40 27° NNE visible
08 Nov 3.5 19:55:22 10° SSW 19:57:49 29° W 20:00:25 10° NNW visible
